Zurück zum Katalog

DELTA 1 DEB

AktivHEO
NORAD 4841·DEBRIS·🇺🇸 United States

Gestartet Jul 4, 1968 von Vandenberg Space Force Base

Loading…

Nächste Überflüge (nächste 24 Stunden)

TLE

AlterndSource: Space-Track

Epoche: Aug 31, 2026, 11:34 UTC

1 04841U 68055D   26243.48197500  .00000107  00000-0  20284-3 0  9999
2 04841 120.7191 356.8206 2699373 248.2096 150.3623  9.29294698142432

Verfolge DELTA 1 DEB in Echtzeit mit AllMySat

Download on the App Store